CW1461 Weather Reports


Display with metric or nautical units.
time (UTC)temp
F
wind
direction
speed
MPH
gust
MPH
rain 1hr
in
rain 24hr
in
rain mn
in
humidity
%
barometer
mb
20180120112111 35 200 1.0 3.0 0.00 0.04 0.00 93 999.0
20180120110111 35 200 0.0 1.0 0.00 0.04 0.00 93 999.1
20180120104111 35 200 0.0 1.0 0.00 0.04 0.00 93 998.9
20180120102111 35 232 0.0 2.0 0.00 0.04 0.00 92 998.8
20180120101111 34 234 0.0 3.0 0.00 0.04 0.00 92 998.9
20180120100112 34 237 0.0 3.0 0.00 0.04 0.00 92 998.9
20180120095111 34 226 1.0 3.0 0.00 0.04 0.00 92 998.9
20180120094110 34 225 0.0 1.0 0.00 0.04 0.00 92 998.8
20180120093111 34 225 0.0 3.0 0.00 0.04 0.00 92 998.7
20180120092111 34 225 0.0 1.0 0.00 0.04 0.00 92 998.8
20180120091110 34 225 1.0 3.0 0.00 0.04 0.00 92 998.7
20180120085111 34 247 1.0 3.0 0.00 0.04 0.00 92 998.5
20180120084111 34 185 1.0 2.0 0.00 0.04 0.00 92 998.6
20180120080111 34 254 2.0 6.0 0.00 0.04 0.00 91 998.3
20180120075111 33 247 2.0 5.0 0.00 0.04 0.00 91 998.1
20180120073111 33 244 2.0 3.0 0.00 0.04 0.00 91 998.2
20180120071111 34 239 0.0 2.0 0.00 0.04 0.00 91 998.3
20180120065111 34 239 1.0 3.0 0.00 0.04 0.00 91 998.4
20180120064111 34 246 1.0 6.0 0.00 0.04 0.00 91 998.3
20180120061111 33 182 0.0 3.0 0.00 0.04 0.00 90 998.2
20180120060112 33 246 0.0 2.0 0.00 0.04 0.00 90 998.3
20180120053114 34 246 0.0 0.0 0.00 0.04 0.00 90 998.3
20180120052114 34 246 0.0 3.0 0.00 0.04 0.00 90 998.3
20180120050112 35 247 2.0 7.0 0.00 0.04 0.00 90 998.5
20180120045111 34 246 5.0 12.0 0.00 0.04 0.00 90 998.6
20180120043111 34 209 1.0 3.0 0.00 0.04 0.00 90 999.0
20180120041110 34 227 1.0 3.0 0.00 0.04 0.00 89 999.3
20180120034111 34 183 2.0 3.0 0.00 0.04 0.00 89 999.5
20180120032110 35 246 2.0 5.0 0.00 0.04 0.00 88 999.6
20180120031111 35 163 2.0 8.0 0.00 0.04 0.00 88 999.7
20180120030111 35 269 3.0 8.0 0.00 0.04 0.00 88 999.8
20180120024112 35 175 3.0 8.0 0.00 0.04 0.00 88 1000.1
20180120023111 35 178 2.0 6.0 0.00 0.04 0.00 88 1000.0
20180120022111 35 173 2.0 6.0 0.00 0.04 0.00 88 1000.2
20180120015111 35 254 3.0 7.0 0.00 0.04 0.00 87 1000.4
20180120012111 34 245 2.0 7.0 0.00 0.04 0.00 87 1000.9
20180120011111 34 232 3.0 7.0 0.00 0.04 0.00 86 1000.7
20180120010111 34 181 1.0 5.0 0.00 0.04 0.00 86 1000.8
20180120005111 34 211 1.0 5.0 0.00 0.04 0.00 85 1000.9
20180120002111 34 163 1.0 5.0 0.00 0.04 0.00 85 1001.2
20180120001117 34 254 3.0 7.0 0.00 0.04 0.00 86 1001.3
20180120000112 34 236 4.0 8.0 0.00 0.04 0.00 87 1001.4
20180119235114 34 190 3.0 9.0 0.00 0.04 0.04 87 1001.4
20180119234111 34 257 4.0 7.0 0.00 0.04 0.04 87 1001.5
20180119230113 34 186 2.0 5.0 0.00 0.04 0.04 86 1001.7
20180119225111 34 184 2.0 5.0 0.00 0.04 0.04 86 1001.7
20180119224110 35 207 1.0 3.0 0.00 0.04 0.04 87 1001.6
20180119222113 35 159 0.0 3.0 0.00 0.04 0.04 87 1001.5
20180119221114 35 158 2.0 5.0 0.00 0.04 0.04 87 1001.6
20180119215113 35 241 2.0 6.0 0.00 0.05 0.04 87 1001.6
20180119214114 35 240 3.0 7.0 0.00 0.05 0.04 87 1001.6
20180119213111 36 269 0.0 5.0 0.00 0.05 0.04 88 1001.5
20180119212111 36 246 1.0 3.0 0.00 0.05 0.04 88 1001.4
20180119211114 36 223 2.0 5.0 0.00 0.05 0.04 87 1001.3
20180119205114 37 196 1.0 7.0 0.00 0.05 0.04 88 1001.0
20180119204111 37 226 2.0 9.0 0.00 0.05 0.04 87 1001.0
20180119202113 37 238 1.0 6.0 0.00 0.05 0.04 87 1001.1
20180119200112 37 234 6.0 9.0 0.00 0.05 0.04 86 1000.9
20180119195111 37 238 5.0 9.0 0.00 0.05 0.04 86 1001.0
20180119194111 38 251 5.0 12.0 0.00 0.05 0.04 86 1000.9
20180119191113 37 250 5.0 9.0 0.00 0.05 0.04 84 1001.0
20180119184111 37 244 6.0 9.0 0.00 0.05 0.04 81 1001.2
20180119183111 37 258 5.0 10.0 0.00 0.05 0.04 81 1001.0
20180119180111 37 254 5.0 9.0 0.00 0.05 0.04 82 1000.8
20180119175111 36 186 3.0 6.0 0.00 0.05 0.04 81 1000.8
20180119172111 37 226 1.0 5.0 0.00 0.06 0.04 81 1001.0
20180119171111 37 159 2.0 7.0 0.00 0.06 0.04 80 1001.1
20180119170111 37 196 1.0 6.0 0.00 0.06 0.04 80 1001.0
20180119165114 37 168 2.0 3.0 0.00 0.06 0.04 79 1001.1
20180119164111 37 173 1.0 3.0 0.00 0.06 0.04 79 1001.2
20180119152111 39 261 7.0 14.0 0.00 0.09 0.04 78 1001.1
20180119150112 39 222 8.0 12.0 0.00 0.10 0.04 79 1001.0
20180119144111 39 241 6.0 9.0 0.00 0.11 0.04 79 1001.0
20180119143110 39 270 6.0 12.0 0.00 0.12 0.04 78 1000.9
20180119142110 39 272 5.0 13.0 0.00 0.13 0.04 78 1001.1
20180119141111 40 263 6.0 14.0 0.01 0.13 0.04 78 1001.0
20180119140112 40 227 7.0 17.0 0.01 0.13 0.04 78 1001.1
20180119134111 40 341 5.0 12.0 0.02 0.14 0.04 78 1000.8
20180119133111 40 242 7.0 12.0 0.02 0.15 0.04 77 1000.8
20180119123111 39 269 6.0 12.0 0.02 0.22 0.02 80 1001.1
20180119122111 39 260 7.0 10.0 0.02 0.24 0.02 80 1001.0
20180119121111 39 209 6.0 13.0 0.02 0.25 0.02 81 1001.1
20180119120112 39 242 7.0 12.0 0.02 0.27 0.02 82 1001.1
20180119114111 38 201 3.0 9.0 0.01 0.30 0.01 84 1001.4